Location: ?????????
(38.5999°N, 22.7695°E)
Time: 16:58:20
(UTC+00:00)

Thor Agena Rocket - Pass Details

Date: 23 May 2024
Orbit: 758 x 804 km, 99.1° (Epoch: 24 June)

Event Time Altitude Azimuth Distance (km) Brightness Sun altitude
Rises 01:59:07 0° 17° (NNE) 3,289 7.8 -12.5°
Reaches altitude 10° 02:01:28 10° 20° (NNE) 2,363 7.0 -12.1°
Maximum altitude 02:06:39 64° 102° (ESE) 883 4.0 -11.4°
Drops below altitude 10° 02:11:51 10° 184° (S) 2,369 5.7 -10.6°
Enters shadow 02:13:49 - 187° (S) 3,148 6.3 -10.3°
